owner,sensor,date,latitude,longitude,vertical_datum,sea_water_temperature,qcFlag 
DISL,ioos:station:DISL:PPTA:1,2015-12-01T00:00:00Z,30.2791,-87.5561,0.0,20.77,2 
DISL,ioos:station:DISL:PPTA:1,2015-12-01T00:30:00Z,30.2791,-87.5561,0.0,20.82,2 
DISL,ioos:station:DISL:PPTA:1,2015-12-01T01:00:00Z,30.2791,-87.5561,0.0,20.85,2 
DISL,ioos:station:DISL:PPTA:1,2015-12-01T01:30:00Z,30.2791,-87.5561,0.0,20.92,2 
DISL,ioos:station:DISL:PPTA:1,2015-12-01T02:00:00Z,30.2791,-87.5561,0.0,20.89,2 
DISL,ioos:station:DISL:PPTA:1,2015-12-01T02:30:00Z,30.2791,-87.5561,0.0,20.93,2 
DISL,ioos:station:DISL:PPTA:1,2015-12-01T03:00:00Z,30.2791,-87.5561,0.0,21.0,2 
DISL,ioos:station:DISL:PPTA:1,2015-12-01T03:30:00Z,30.2791,-87.5561,0.0,21.04,2 
DISL,ioos:station:DISL:PPTA:1,2015-12-01T04:00:00Z,30.2791,-87.5561,0.0,21.0,2 
DISL,ioos:station:DISL:PPTA:1,2015-12-01T04:30:00Z,30.2791,-87.5561,0.0,21.04,2 
DISL,ioos:station:DISL:PPTA:1,2015-12-01T05:00:00Z,30.2791,-87.5561,0.0,20.93,2 
DISL,ioos:station:DISL:PPTA:1,2015-12-01T05:30:00Z,30.2791,-87.5561,0.0,20.99,2 
DISL,ioos:station:DISL:PPTA:1,2015-12-01T06:00:00Z,30.2791,-87.5561,0.0,21.01,2 
DISL,ioos:station:DISL:PPTA:1,2015-12-01T06:30:00Z,30.2791,-87.5561,0.0,20.99,2 
DISL,ioos:station:DISL:PPTA:1,2015-12-01T07:00:00Z,30.2791,-87.5561,0.0,20.99,2 
DISL,ioos:station:DISL:PPTA:1,2015-12-01T07:30:00Z,30.2791,-87.5561,0.0,20.99,2 
DISL,ioos:station:DISL:PPTA:1,2015-12-01T08:00:00Z,30.2791,-87.5561,0.0,21.0,2 
DISL,ioos:station:DISL:PPTA:1,2015-12-01T08:30:00Z,30.2791,-87.5561,0.0,21.01,2 
DISL,ioos:station:DISL:PPTA:1,2015-12-01T09:00:00Z,30.2791,-87.5561,0.0,21.0,2 
DISL,ioos:station:DISL:PPTA:1,2015-12-01T09:30:00Z,30.2791,-87.5561,0.0,20.99,2 
DISL,ioos:station:DISL:PPTA:1,2015-12-01T10:00:00Z,30.2791,-87.5561,0.0,20.63,2 
DISL,ioos:station:DISL:PPTA:1,2015-12-01T10:30:00Z,30.2791,-87.5561,0.0,20.89,2 
DISL,ioos:station:DISL:PPTA:1,2015-12-01T11:00:00Z,30.2791,-87.5561,0.0,20.92,2 
DISL,ioos:station:DISL:PPTA:1,2015-12-01T11:30:00Z,30.2791,-87.5561,0.0,20.92,2 
DISL,ioos:station:DISL:PPTA:1,2015-12-01T12:00:00Z,30.2791,-87.5561,0.0,20.45,2 
DISL,ioos:station:DISL:PPTA:1,2015-12-01T12:30:00Z,30.2791,-87.5561,0.0,20.48,2 
DISL,ioos:station:DISL:PPTA:1,2015-12-01T13:00:00Z,30.2791,-87.5561,0.0,20.75,2 
DISL,ioos:station:DISL:PPTA:1,2015-12-01T13:30:00Z,30.2791,-87.5561,0.0,20.73,2 
DISL,ioos:station:DISL:PPTA:1,2015-12-01T14:00:00Z,30.2791,-87.5561,0.0,20.69,2 
DISL,ioos:station:DISL:PPTA:1,2015-12-01T14:30:00Z,30.2791,-87.5561,0.0,20.68,2 
DISL,ioos:station:DISL:PPTA:1,2015-12-01T15:00:00Z,30.2791,-87.5561,0.0,20.68,2 
DISL,ioos:station:DISL:PPTA:1,2015-12-01T15:30:00Z,30.2791,-87.5561,0.0,20.45,2 
DISL,ioos:station:DISL:PPTA:1,2015-12-01T16:00:00Z,30.2791,-87.5561,0.0,20.71,2 
DISL,ioos:station:DISL:PPTA:1,2015-12-01T16:30:00Z,30.2791,-87.5561,0.0,20.53,2 
DISL,ioos:station:DISL:PPTA:1,2015-12-01T17:00:00Z,30.2791,-87.5561,0.0,20.54,2 
DISL,ioos:station:DISL:PPTA:1,2015-12-01T17:30:00Z,30.2791,-87.5561,0.0,20.66,2 
DISL,ioos:station:DISL:PPTA:1,2015-12-01T18:00:00Z,30.2791,-87.5561,0.0,20.72,2 
DISL,ioos:station:DISL:PPTA:1,2015-12-01T18:30:00Z,30.2791,-87.5561,0.0,20.84,2 
DISL,ioos:station:DISL:PPTA:1,2015-12-01T19:00:00Z,30.2791,-87.5561,0.0,20.99,2 
DISL,ioos:station:DISL:PPTA:1,2015-12-01T19:30:00Z,30.2791,-87.5561,0.0,21.04,2 
DISL,ioos:station:DISL:PPTA:1,2015-12-01T20:00:00Z,30.2791,-87.5561,0.0,21.08,2 
DISL,ioos:station:DISL:PPTA:1,2015-12-01T20:30:00Z,30.2791,-87.5561,0.0,21.07,2 
DISL,ioos:station:DISL:PPTA:1,2015-12-01T21:00:00Z,30.2791,-87.5561,0.0,21.31,2 
DISL,ioos:station:DISL:PPTA:1,2015-12-01T21:30:00Z,30.2791,-87.5561,0.0,21.19,2 
DISL,ioos:station:DISL:PPTA:1,2015-12-01T22:00:00Z,30.2791,-87.5561,0.0,21.32,2 
DISL,ioos:station:DISL:PPTA:1,2015-12-01T22:30:00Z,30.2791,-87.5561,0.0,21.04,2 
DISL,ioos:station:DISL:PPTA:1,2015-12-01T23:00:00Z,30.2791,-87.5561,0.0,20.94,2 
DISL,ioos:station:DISL:PPTA:1,2015-12-01T23:30:00Z,30.2791,-87.5561,0.0,20.99,2 
DISL,ioos:station:DISL:PPTA:1,2015-12-02T00:00:00Z,30.2791,-87.5561,0.0,20.96,2 
DISL,ioos:station:DISL:PPTA:1,2015-12-02T00:30:00Z,30.2791,-87.5561,0.0,20.99,2 
DISL,ioos:station:DISL:PPTA:1,2015-12-02T01:00:00Z,30.2791,-87.5561,0.0,21.01,2 
DISL,ioos:station:DISL:PPTA:1,2015-12-02T01:30:00Z,30.2791,-87.5561,0.0,21.03,2 
DISL,ioos:station:DISL:PPTA:1,2015-12-02T02:00:00Z,30.2791,-87.5561,0.0,21.02,2 
DISL,ioos:station:DISL:PPTA:1,2015-12-02T02:30:00Z,30.2791,-87.5561,0.0,20.99,2 
DISL,ioos:station:DISL:PPTA:1,2015-12-02T03:00:00Z,30.2791,-87.5561,0.0,20.99,2 
DISL,ioos:station:DISL:PPTA:1,2015-12-02T03:30:00Z,30.2791,-87.5561,0.0,20.96,2 
DISL,ioos:station:DISL:PPTA:1,2015-12-02T04:00:00Z,30.2791,-87.5561,0.0,20.98,2 
DISL,ioos:station:DISL:PPTA:1,2015-12-02T04:30:00Z,30.2791,-87.5561,0.0,20.97,2 
DISL,ioos:station:DISL:PPTA:1,2015-12-02T05:00:00Z,30.2791,-87.5561,0.0,20.92,2 
DISL,ioos:station:DISL:PPTA:1,2015-12-02T05:30:00Z,30.2791,-87.5561,0.0,20.93,2 
DISL,ioos:station:DISL:PPTA:1,2015-12-02T06:00:00Z,30.2791,-87.5561,0.0,20.9,2 
DISL,ioos:station:DISL:PPTA:1,2015-12-02T06:30:00Z,30.2791,-87.5561,0.0,20.9,2 
DISL,ioos:station:DISL:PPTA:1,2015-12-02T07:00:00Z,30.2791,-87.5561,0.0,20.91,2 
DISL,ioos:station:DISL:PPTA:1,2015-12-02T07:30:00Z,30.2791,-87.5561,0.0,20.98,2 
DISL,ioos:station:DISL:PPTA:1,2015-12-02T08:00:00Z,30.2791,-87.5561,0.0,20.94,2 
DISL,ioos:station:DISL:PPTA:1,2015-12-02T08:30:00Z,30.2791,-87.5561,0.0,20.98,2 
DISL,ioos:station:DISL:PPTA:1,2015-12-02T09:00:00Z,30.2791,-87.5561,0.0,21.06,2 
DISL,ioos:station:DISL:PPTA:1,2015-12-02T09:30:00Z,30.2791,-87.5561,0.0,21.04,2 
DISL,ioos:station:DISL:PPTA:1,2015-12-02T10:00:00Z,30.2791,-87.5561,0.0,21.05,2 
DISL,ioos:station:DISL:PPTA:1,2015-12-02T10:30:00Z,30.2791,-87.5561,0.0,21.12,2 
DISL,ioos:station:DISL:PPTA:1,2015-12-02T11:00:00Z,30.2791,-87.5561,0.0,21.08,2 
DISL,ioos:station:DISL:PPTA:1,2015-12-02T11:30:00Z,30.2791,-87.5561,0.0,21.03,2 
DISL,ioos:station:DISL:PPTA:1,2015-12-02T12:00:00Z,30.2791,-87.5561,0.0,21.06,2 
DISL,ioos:station:DISL:PPTA:1,2015-12-02T12:30:00Z,30.2791,-87.5561,0.0,21.0,2 
DISL,ioos:station:DISL:PPTA:1,2015-12-02T13:00:00Z,30.2791,-87.5561,0.0,20.94,2 
DISL,ioos:station:DISL:PPTA:1,2015-12-02T13:30:00Z,30.2791,-87.5561,0.0,20.9,2 
DISL,ioos:station:DISL:PPTA:1,2015-12-02T14:00:00Z,30.2791,-87.5561,0.0,20.86,2 
DISL,ioos:station:DISL:PPTA:1,2015-12-02T14:30:00Z,30.2791,-87.5561,0.0,20.78,2 
DISL,ioos:station:DISL:PPTA:1,2015-12-02T15:00:00Z,30.2791,-87.5561,0.0,20.74,2 
DISL,ioos:station:DISL:PPTA:1,2015-12-02T15:30:00Z,30.2791,-87.5561,0.0,20.69,2 
DISL,ioos:station:DISL:PPTA:1,2015-12-02T16:00:00Z,30.2791,-87.5561,0.0,20.64,2 
DISL,ioos:station:DISL:PPTA:1,2015-12-02T16:30:00Z,30.2791,-87.5561,0.0,20.53,2 
DISL,ioos:station:DISL:PPTA:1,2015-12-02T17:00:00Z,30.2791,-87.5561,0.0,20.75,2 
DISL,ioos:station:DISL:PPTA:1,2015-12-02T17:30:00Z,30.2791,-87.5561,0.0,20.83,2 
DISL,ioos:station:DISL:PPTA:1,2015-12-02T18:00:00Z,30.2791,-87.5561,0.0,20.53,2 
DISL,ioos:station:DISL:PPTA:1,2015-12-02T18:30:00Z,30.2791,-87.5561,0.0,20.61,2 
DISL,ioos:station:DISL:PPTA:1,2015-12-02T19:00:00Z,30.2791,-87.5561,0.0,20.6,2 
DISL,ioos:station:DISL:PPTA:1,2015-12-02T19:30:00Z,30.2791,-87.5561,0.0,20.59,2 
DISL,ioos:station:DISL:PPTA:1,2015-12-02T20:00:00Z,30.2791,-87.5561,0.0,20.78,2 
DISL,ioos:station:DISL:PPTA:1,2015-12-02T20:30:00Z,30.2791,-87.5561,0.0,20.78,2 
DISL,ioos:station:DISL:PPTA:1,2015-12-02T21:00:00Z,30.2791,-87.5561,0.0,20.36,2 
DISL,ioos:station:DISL:PPTA:1,2015-12-02T21:30:00Z,30.2791,-87.5561,0.0,20.67,2 
DISL,ioos:station:DISL:PPTA:1,2015-12-02T22:00:00Z,30.2791,-87.5561,0.0,21.0,2 
DISL,ioos:station:DISL:PPTA:1,2015-12-02T22:30:00Z,30.2791,-87.5561,0.0,20.78,2 
DISL,ioos:station:DISL:PPTA:1,2015-12-02T23:00:00Z,30.2791,-87.5561,0.0,20.59,2 
DISL,ioos:station:DISL:PPTA:1,2015-12-02T23:30:00Z,30.2791,-87.5561,0.0,20.63,2 
DISL,ioos:station:DISL:PPTA:1,2015-12-03T00:00:00Z,30.2791,-87.5561,0.0,20.57,2 
DISL,ioos:station:DISL:PPTA:1,2015-12-03T00:30:00Z,30.2791,-87.5561,0.0,20.62,2 
DISL,ioos:station:DISL:PPTA:1,2015-12-03T01:00:00Z,30.2791,-87.5561,0.0,20.61,2 
DISL,ioos:station:DISL:PPTA:1,2015-12-03T01:30:00Z,30.2791,-87.5561,0.0,20.54,2 
DISL,ioos:station:DISL:PPTA:1,2015-12-03T02:00:00Z,30.2791,-87.5561,0.0,20.58,2 
DISL,ioos:station:DISL:PPTA:1,2015-12-03T02:30:00Z,30.2791,-87.5561,0.0,20.57,2 
DISL,ioos:station:DISL:PPTA:1,2015-12-03T03:00:00Z,30.2791,-87.5561,0.0,20.5,2 
DISL,ioos:station:DISL:PPTA:1,2015-12-03T03:30:00Z,30.2791,-87.5561,0.0,20.52,2 
DISL,ioos:station:DISL:PPTA:1,2015-12-03T04:00:00Z,30.2791,-87.5561,0.0,20.5,2 
DISL,ioos:station:DISL:PPTA:1,2015-12-03T04:30:00Z,30.2791,-87.5561,0.0,20.21,2 
DISL,ioos:station:DISL:PPTA:1,2015-12-03T05:00:00Z,30.2791,-87.5561,0.0,20.13,2 
DISL,ioos:station:DISL:PPTA:1,2015-12-03T05:30:00Z,30.2791,-87.5561,0.0,19.88,2 
DISL,ioos:station:DISL:PPTA:1,2015-12-03T06:00:00Z,30.2791,-87.5561,0.0,19.22,2 
DISL,ioos:station:DISL:PPTA:1,2015-12-03T06:30:00Z,30.2791,-87.5561,0.0,19.63,2 
DISL,ioos:station:DISL:PPTA:1,2015-12-03T07:00:00Z,30.2791,-87.5561,0.0,19.25,2 
DISL,ioos:station:DISL:PPTA:1,2015-12-03T07:30:00Z,30.2791,-87.5561,0.0,19.25,2 
DISL,ioos:station:DISL:PPTA:1,2015-12-03T08:00:00Z,30.2791,-87.5561,0.0,19.13,2 
DISL,ioos:station:DISL:PPTA:1,2015-12-03T08:30:00Z,30.2791,-87.5561,0.0,20.05,2 
DISL,ioos:station:DISL:PPTA:1,2015-12-03T09:00:00Z,30.2791,-87.5561,0.0,19.87,2 
DISL,ioos:station:DISL:PPTA:1,2015-12-03T09:30:00Z,30.2791,-87.5561,0.0,19.6,2 
DISL,ioos:station:DISL:PPTA:1,2015-12-03T10:00:00Z,30.2791,-87.5561,0.0,18.83,2 
DISL,ioos:station:DISL:PPTA:1,2015-12-03T10:30:00Z,30.2791,-87.5561,0.0,19.0,2 
DISL,ioos:station:DISL:PPTA:1,2015-12-03T11:00:00Z,30.2791,-87.5561,0.0,18.37,2 
DISL,ioos:station:DISL:PPTA:1,2015-12-03T11:30:00Z,30.2791,-87.5561,0.0,18.5,2 
DISL,ioos:station:DISL:PPTA:1,2015-12-03T12:00:00Z,30.2791,-87.5561,0.0,18.81,2 
DISL,ioos:station:DISL:PPTA:1,2015-12-03T12:30:00Z,30.2791,-87.5561,0.0,18.41,2 
DISL,ioos:station:DISL:PPTA:1,2015-12-03T13:00:00Z,30.2791,-87.5561,0.0,18.29,2 
DISL,ioos:station:DISL:PPTA:1,2015-12-03T13:30:00Z,30.2791,-87.5561,0.0,18.29,2 
DISL,ioos:station:DISL:PPTA:1,2015-12-03T14:00:00Z,30.2791,-87.5561,0.0,18.39,2 
DISL,ioos:station:DISL:PPTA:1,2015-12-03T14:30:00Z,30.2791,-87.5561,0.0,18.72,2 
DISL,ioos:station:DISL:PPTA:1,2015-12-03T15:00:00Z,30.2791,-87.5561,0.0,18.15,2 
DISL,ioos:station:DISL:PPTA:1,2015-12-03T15:30:00Z,30.2791,-87.5561,0.0,18.39,2 
DISL,ioos:station:DISL:PPTA:1,2015-12-03T16:00:00Z,30.2791,-87.5561,0.0,18.05,2 
DISL,ioos:station:DISL:PPTA:1,2015-12-03T16:30:00Z,30.2791,-87.5561,0.0,17.98,2 
DISL,ioos:station:DISL:PPTA:1,2015-12-03T17:00:00Z,30.2791,-87.5561,0.0,17.9,2 
DISL,ioos:station:DISL:PPTA:1,2015-12-03T17:30:00Z,30.2791,-87.5561,0.0,18.08,2 
DISL,ioos:station:DISL:PPTA:1,2015-12-03T18:00:00Z,30.2791,-87.5561,0.0,17.71,2 
DISL,ioos:station:DISL:PPTA:1,2015-12-03T18:30:00Z,30.2791,-87.5561,0.0,17.69,2 
DISL,ioos:station:DISL:PPTA:1,2015-12-03T19:00:00Z,30.2791,-87.5561,0.0,17.64,2 
DISL,ioos:station:DISL:PPTA:1,2015-12-03T19:30:00Z,30.2791,-87.5561,0.0,18.87,2 
DISL,ioos:station:DISL:PPTA:1,2015-12-03T20:00:00Z,30.2791,-87.5561,0.0,17.65,2 
DISL,ioos:station:DISL:PPTA:1,2015-12-03T20:30:00Z,30.2791,-87.5561,0.0,18.44,2 
DISL,ioos:station:DISL:PPTA:1,2015-12-03T21:00:00Z,30.2791,-87.5561,0.0,19.08,2 
DISL,ioos:station:DISL:PPTA:1,2015-12-03T21:30:00Z,30.2791,-87.5561,0.0,19.12,2 
DISL,ioos:station:DISL:PPTA:1,2015-12-03T22:00:00Z,30.2791,-87.5561,0.0,19.03,2 
DISL,ioos:station:DISL:PPTA:1,2015-12-03T22:30:00Z,30.2791,-87.5561,0.0,20.05,2 
DISL,ioos:station:DISL:PPTA:1,2015-12-03T23:00:00Z,30.2791,-87.5561,0.0,19.34,2 
DISL,ioos:station:DISL:PPTA:1,2015-12-03T23:30:00Z,30.2791,-87.5561,0.0,20.08,2 
DISL,ioos:station:DISL:PPTA:1,2015-12-04T00:00:00Z,30.2791,-87.5561,0.0,19.91,2 
DISL,ioos:station:DISL:PPTA:1,2015-12-04T00:30:00Z,30.2791,-87.5561,0.0,20.31,2 
DISL,ioos:station:DISL:PPTA:1,2015-12-04T01:00:00Z,30.2791,-87.5561,0.0,20.06,2 
DISL,ioos:station:DISL:PPTA:1,2015-12-04T01:30:00Z,30.2791,-87.5561,0.0,17.03,2 
DISL,ioos:station:DISL:PPTA:1,2015-12-04T02:00:00Z,30.2791,-87.5561,0.0,16.69,2 
DISL,ioos:station:DISL:PPTA:1,2015-12-04T02:30:00Z,30.2791,-87.5561,0.0,16.65,2 
DISL,ioos:station:DISL:PPTA:1,2015-12-04T03:00:00Z,30.2791,-87.5561,0.0,16.79,2 
DISL,ioos:station:DISL:PPTA:1,2015-12-04T03:30:00Z,30.2791,-87.5561,0.0,17.02,2 
DISL,ioos:station:DISL:PPTA:1,2015-12-04T04:00:00Z,30.2791,-87.5561,0.0,16.5,2 
DISL,ioos:station:DISL:PPTA:1,2015-12-04T04:30:00Z,30.2791,-87.5561,0.0,16.11,2 
DISL,ioos:station:DISL:PPTA:1,2015-12-04T05:00:00Z,30.2791,-87.5561,0.0,16.91,2 
DISL,ioos:station:DISL:PPTA:1,2015-12-04T05:30:00Z,30.2791,-87.5561,0.0,15.9,2 
DISL,ioos:station:DISL:PPTA:1,2015-12-04T06:00:00Z,30.2791,-87.5561,0.0,17.85,2 
DISL,ioos:station:DISL:PPTA:1,2015-12-04T06:30:00Z,30.2791,-87.5561,0.0,18.27,2 
DISL,ioos:station:DISL:PPTA:1,2015-12-04T07:00:00Z,30.2791,-87.5561,0.0,17.27,2 
DISL,ioos:station:DISL:PPTA:1,2015-12-04T07:30:00Z,30.2791,-87.5561,0.0,17.79,2 
DISL,ioos:station:DISL:PPTA:1,2015-12-04T08:00:00Z,30.2791,-87.5561,0.0,18.7,2 
DISL,ioos:station:DISL:PPTA:1,2015-12-04T08:30:00Z,30.2791,-87.5561,0.0,15.5,2 
DISL,ioos:station:DISL:PPTA:1,2015-12-04T09:00:00Z,30.2791,-87.5561,0.0,15.28,2 
DISL,ioos:station:DISL:PPTA:1,2015-12-04T09:30:00Z,30.2791,-87.5561,0.0,15.68,2 
DISL,ioos:station:DISL:PPTA:1,2015-12-04T10:00:00Z,30.2791,-87.5561,0.0,15.56,2 
DISL,ioos:station:DISL:PPTA:1,2015-12-04T10:30:00Z,30.2791,-87.5561,0.0,15.14,2 
DISL,ioos:station:DISL:PPTA:1,2015-12-04T11:00:00Z,30.2791,-87.5561,0.0,15.45,2 
DISL,ioos:station:DISL:PPTA:1,2015-12-04T11:30:00Z,30.2791,-87.5561,0.0,15.22,2 
DISL,ioos:station:DISL:PPTA:1,2015-12-04T12:00:00Z,30.2791,-87.5561,0.0,15.83,2 
DISL,ioos:station:DISL:PPTA:1,2015-12-04T12:30:00Z,30.2791,-87.5561,0.0,15.75,2 
DISL,ioos:station:DISL:PPTA:1,2015-12-04T13:00:00Z,30.2791,-87.5561,0.0,17.44,2 
DISL,ioos:station:DISL:PPTA:1,2015-12-04T13:30:00Z,30.2791,-87.5561,0.0,15.04,2 
DISL,ioos:station:DISL:PPTA:1,2015-12-04T14:00:00Z,30.2791,-87.5561,0.0,16.99,2 
DISL,ioos:station:DISL:PPTA:1,2015-12-04T14:30:00Z,30.2791,-87.5561,0.0,16.08,2 
DISL,ioos:station:DISL:PPTA:1,2015-12-04T15:00:00Z,30.2791,-87.5561,0.0,15.23,2 
DISL,ioos:station:DISL:PPTA:1,2015-12-04T15:30:00Z,30.2791,-87.5561,0.0,17.08,2 
DISL,ioos:station:DISL:PPTA:1,2015-12-04T16:00:00Z,30.2791,-87.5561,0.0,16.5,2 
DISL,ioos:station:DISL:PPTA:1,2015-12-04T16:30:00Z,30.2791,-87.5561,0.0,15.31,2 
DISL,ioos:station:DISL:PPTA:1,2015-12-04T17:00:00Z,30.2791,-87.5561,0.0,15.41,2 
DISL,ioos:station:DISL:PPTA:1,2015-12-04T17:30:00Z,30.2791,-87.5561,0.0,15.54,2 
DISL,ioos:station:DISL:PPTA:1,2015-12-04T18:00:00Z,30.2791,-87.5561,0.0,16.19,2 
DISL,ioos:station:DISL:PPTA:1,2015-12-04T18:30:00Z,30.2791,-87.5561,0.0,15.66,2 
DISL,ioos:station:DISL:PPTA:1,2015-12-04T19:00:00Z,30.2791,-87.5561,0.0,15.76,2 
DISL,ioos:station:DISL:PPTA:1,2015-12-04T19:30:00Z,30.2791,-87.5561,0.0,16.65,2 
DISL,ioos:station:DISL:PPTA:1,2015-12-04T20:00:00Z,30.2791,-87.5561,0.0,17.24,2 
DISL,ioos:station:DISL:PPTA:1,2015-12-04T20:30:00Z,30.2791,-87.5561,0.0,18.82,2 
DISL,ioos:station:DISL:PPTA:1,2015-12-04T21:00:00Z,30.2791,-87.5561,0.0,19.38,2 
DISL,ioos:station:DISL:PPTA:1,2015-12-04T21:30:00Z,30.2791,-87.5561,0.0,19.65,2 
DISL,ioos:station:DISL:PPTA:1,2015-12-04T22:00:00Z,30.2791,-87.5561,0.0,19.86,2 
DISL,ioos:station:DISL:PPTA:1,2015-12-04T22:30:00Z,30.2791,-87.5561,0.0,19.77,2 
DISL,ioos:station:DISL:PPTA:1,2015-12-04T23:00:00Z,30.2791,-87.5561,0.0,19.78,2 
DISL,ioos:station:DISL:PPTA:1,2015-12-04T23:30:00Z,30.2791,-87.5561,0.0,19.82,2 
DISL,ioos:station:DISL:PPTA:1,2015-12-05T00:00:00Z,30.2791,-87.5561,0.0,19.78,2 
DISL,ioos:station:DISL:PPTA:1,2015-12-05T00:30:00Z,30.2791,-87.5561,0.0,19.84,2 
DISL,ioos:station:DISL:PPTA:1,2015-12-05T01:00:00Z,30.2791,-87.5561,0.0,19.74,2 
DISL,ioos:station:DISL:PPTA:1,2015-12-05T01:30:00Z,30.2791,-87.5561,0.0,19.7,2 
DISL,ioos:station:DISL:PPTA:1,2015-12-05T02:00:00Z,30.2791,-87.5561,0.0,19.71,2 
DISL,ioos:station:DISL:PPTA:1,2015-12-05T02:30:00Z,30.2791,-87.5561,0.0,19.68,2 
DISL,ioos:station:DISL:PPTA:1,2015-12-05T03:00:00Z,30.2791,-87.5561,0.0,19.62,2 
DISL,ioos:station:DISL:PPTA:1,2015-12-05T03:30:00Z,30.2791,-87.5561,0.0,19.56,2 
DISL,ioos:station:DISL:PPTA:1,2015-12-05T04:00:00Z,30.2791,-87.5561,0.0,19.55,2 
DISL,ioos:station:DISL:PPTA:1,2015-12-05T04:30:00Z,30.2791,-87.5561,0.0,19.55,2 
DISL,ioos:station:DISL:PPTA:1,2015-12-05T05:00:00Z,30.2791,-87.5561,0.0,15.56,2 
DISL,ioos:station:DISL:PPTA:1,2015-12-05T05:30:00Z,30.2791,-87.5561,0.0,19.5,2 
DISL,ioos:station:DISL:PPTA:1,2015-12-05T06:00:00Z,30.2791,-87.5561,0.0,17.93,2 
DISL,ioos:station:DISL:PPTA:1,2015-12-05T06:30:00Z,30.2791,-87.5561,0.0,15.18,2 
DISL,ioos:station:DISL:PPTA:1,2015-12-05T07:00:00Z,30.2791,-87.5561,0.0,15.26,2 
DISL,ioos:station:DISL:PPTA:1,2015-12-05T07:30:00Z,30.2791,-87.5561,0.0,15.63,2 
DISL,ioos:station:DISL:PPTA:1,2015-12-05T08:00:00Z,30.2791,-87.5561,0.0,17.19,2 
DISL,ioos:station:DISL:PPTA:1,2015-12-05T08:30:00Z,30.2791,-87.5561,0.0,14.9,2 
DISL,ioos:station:DISL:PPTA:1,2015-12-05T09:00:00Z,30.2791,-87.5561,0.0,19.04,2 
DISL,ioos:station:DISL:PPTA:1,2015-12-05T09:30:00Z,30.2791,-87.5561,0.0,16.9,2 
DISL,ioos:station:DISL:PPTA:1,2015-12-05T10:00:00Z,30.2791,-87.5561,0.0,17.84,2 
DISL,ioos:station:DISL:PPTA:1,2015-12-05T10:30:00Z,30.2791,-87.5561,0.0,16.19,2 
DISL,ioos:station:DISL:PPTA:1,2015-12-05T11:00:00Z,30.2791,-87.5561,0.0,15.44,2 
DISL,ioos:station:DISL:PPTA:1,2015-12-05T11:30:00Z,30.2791,-87.5561,0.0,14.87,2 
DISL,ioos:station:DISL:PPTA:1,2015-12-05T12:00:00Z,30.2791,-87.5561,0.0,15.91,2 
DISL,ioos:station:DISL:PPTA:1,2015-12-05T12:30:00Z,30.2791,-87.5561,0.0,15.78,2 
DISL,ioos:station:DISL:PPTA:1,2015-12-05T13:00:00Z,30.2791,-87.5561,0.0,14.75,2 
DISL,ioos:station:DISL:PPTA:1,2015-12-05T13:30:00Z,30.2791,-87.5561,0.0,15.39,2 
DISL,ioos:station:DISL:PPTA:1,2015-12-05T14:00:00Z,30.2791,-87.5561,0.0,14.54,2 
DISL,ioos:station:DISL:PPTA:1,2015-12-05T14:30:00Z,30.2791,-87.5561,0.0,15.21,2 
DISL,ioos:station:DISL:PPTA:1,2015-12-05T15:00:00Z,30.2791,-87.5561,0.0,14.77,2 
DISL,ioos:station:DISL:PPTA:1,2015-12-05T15:30:00Z,30.2791,-87.5561,0.0,15.96,2 
DISL,ioos:station:DISL:PPTA:1,2015-12-05T16:00:00Z,30.2791,-87.5561,0.0,15.64,2 
DISL,ioos:station:DISL:PPTA:1,2015-12-05T16:30:00Z,30.2791,-87.5561,0.0,16.49,2 
DISL,ioos:station:DISL:PPTA:1,2015-12-05T17:00:00Z,30.2791,-87.5561,0.0,15.1,2 
DISL,ioos:station:DISL:PPTA:1,2015-12-05T17:30:00Z,30.2791,-87.5561,0.0,15.28,2 
DISL,ioos:station:DISL:PPTA:1,2015-12-05T18:00:00Z,30.2791,-87.5561,0.0,15.5,2 
DISL,ioos:station:DISL:PPTA:1,2015-12-05T18:30:00Z,30.2791,-87.5561,0.0,15.23,2 
DISL,ioos:station:DISL:PPTA:1,2015-12-05T19:00:00Z,30.2791,-87.5561,0.0,15.26,2 
DISL,ioos:station:DISL:PPTA:1,2015-12-05T19:30:00Z,30.2791,-87.5561,0.0,15.85,2 
DISL,ioos:station:DISL:PPTA:1,2015-12-05T20:00:00Z,30.2791,-87.5561,0.0,17.29,2 
DISL,ioos:station:DISL:PPTA:1,2015-12-05T20:30:00Z,30.2791,-87.5561,0.0,18.87,2 
DISL,ioos:station:DISL:PPTA:1,2015-12-05T21:00:00Z,30.2791,-87.5561,0.0,18.31,2 
DISL,ioos:station:DISL:PPTA:1,2015-12-05T21:30:00Z,30.2791,-87.5561,0.0,18.17,2 
DISL,ioos:station:DISL:PPTA:1,2015-12-05T22:00:00Z,30.2791,-87.5561,0.0,18.14,2 
DISL,ioos:station:DISL:PPTA:1,2015-12-05T22:30:00Z,30.2791,-87.5561,0.0,18.1,2 
DISL,ioos:station:DISL:PPTA:1,2015-12-05T23:00:00Z,30.2791,-87.5561,0.0,18.16,2 
DISL,ioos:station:DISL:PPTA:1,2015-12-05T23:30:00Z,30.2791,-87.5561,0.0,18.21,2 
DISL,ioos:station:DISL:PPTA:1,2015-12-06T00:00:00Z,30.2791,-87.5561,0.0,18.24,2 
DISL,ioos:station:DISL:PPTA:1,2015-12-06T00:30:00Z,30.2791,-87.5561,0.0,18.28,2 
DISL,ioos:station:DISL:PPTA:1,2015-12-06T01:00:00Z,30.2791,-87.5561,0.0,18.3,2 
DISL,ioos:station:DISL:PPTA:1,2015-12-06T01:30:00Z,30.2791,-87.5561,0.0,18.25,2 
DISL,ioos:station:DISL:PPTA:1,2015-12-06T02:00:00Z,30.2791,-87.5561,0.0,18.31,2 
DISL,ioos:station:DISL:PPTA:1,2015-12-06T02:30:00Z,30.2791,-87.5561,0.0,18.34,2 
DISL,ioos:station:DISL:PPTA:1,2015-12-06T03:00:00Z,30.2791,-87.5561,0.0,18.33,2 
DISL,ioos:station:DISL:PPTA:1,2015-12-06T03:30:00Z,30.2791,-87.5561,0.0,18.33,2 
DISL,ioos:station:DISL:PPTA:1,2015-12-06T04:00:00Z,30.2791,-87.5561,0.0,18.2,2 
DISL,ioos:station:DISL:PPTA:1,2015-12-06T04:30:00Z,30.2791,-87.5561,0.0,16.5,2 
DISL,ioos:station:DISL:PPTA:1,2015-12-06T05:00:00Z,30.2791,-87.5561,0.0,16.67,2 
DISL,ioos:station:DISL:PPTA:1,2015-12-06T05:30:00Z,30.2791,-87.5561,0.0,17.1,2 
DISL,ioos:station:DISL:PPTA:1,2015-12-06T06:00:00Z,30.2791,-87.5561,0.0,17.28,2 
DISL,ioos:station:DISL:PPTA:1,2015-12-06T06:30:00Z,30.2791,-87.5561,0.0,17.83,2 
DISL,ioos:station:DISL:PPTA:1,2015-12-06T07:00:00Z,30.2791,-87.5561,0.0,17.49,2 
DISL,ioos:station:DISL:PPTA:1,2015-12-06T07:30:00Z,30.2791,-87.5561,0.0,16.72,2 
DISL,ioos:station:DISL:PPTA:1,2015-12-06T08:00:00Z,30.2791,-87.5561,0.0,16.65,2 
DISL,ioos:station:DISL:PPTA:1,2015-12-06T08:30:00Z,30.2791,-87.5561,0.0,16.8,2 
DISL,ioos:station:DISL:PPTA:1,2015-12-06T09:00:00Z,30.2791,-87.5561,0.0,17.05,2 
DISL,ioos:station:DISL:PPTA:1,2015-12-06T09:30:00Z,30.2791,-87.5561,0.0,16.72,2 
DISL,ioos:station:DISL:PPTA:1,2015-12-06T10:00:00Z,30.2791,-87.5561,0.0,16.56,2 
DISL,ioos:station:DISL:PPTA:1,2015-12-06T10:30:00Z,30.2791,-87.5561,0.0,16.44,2 
DISL,ioos:station:DISL:PPTA:1,2015-12-06T11:00:00Z,30.2791,-87.5561,0.0,16.31,2 
DISL,ioos:station:DISL:PPTA:1,2015-12-06T11:30:00Z,30.2791,-87.5561,0.0,16.19,2 
DISL,ioos:station:DISL:PPTA:1,2015-12-06T12:00:00Z,30.2791,-87.5561,0.0,15.36,2 
DISL,ioos:station:DISL:PPTA:1,2015-12-06T12:30:00Z,30.2791,-87.5561,0.0,15.27,2 
DISL,ioos:station:DISL:PPTA:1,2015-12-06T13:00:00Z,30.2791,-87.5561,0.0,15.17,2 
DISL,ioos:station:DISL:PPTA:1,2015-12-06T13:30:00Z,30.2791,-87.5561,0.0,15.32,2 
DISL,ioos:station:DISL:PPTA:1,2015-12-06T14:00:00Z,30.2791,-87.5561,0.0,15.18,2 
DISL,ioos:station:DISL:PPTA:1,2015-12-06T14:30:00Z,30.2791,-87.5561,0.0,15.28,2 
DISL,ioos:station:DISL:PPTA:1,2015-12-06T15:00:00Z,30.2791,-87.5561,0.0,15.14,2 
DISL,ioos:station:DISL:PPTA:1,2015-12-06T15:30:00Z,30.2791,-87.5561,0.0,15.26,2 
DISL,ioos:station:DISL:PPTA:1,2015-12-06T16:00:00Z,30.2791,-87.5561,0.0,15.32,2 
DISL,ioos:station:DISL:PPTA:1,2015-12-06T16:30:00Z,30.2791,-87.5561,0.0,15.51,2 
DISL,ioos:station:DISL:PPTA:1,2015-12-06T17:00:00Z,30.2791,-87.5561,0.0,15.53,2 
DISL,ioos:station:DISL:PPTA:1,2015-12-06T17:30:00Z,30.2791,-87.5561,0.0,15.66,2 
DISL,ioos:station:DISL:PPTA:1,2015-12-06T18:00:00Z,30.2791,-87.5561,0.0,16.18,2 
DISL,ioos:station:DISL:PPTA:1,2015-12-06T18:30:00Z,30.2791,-87.5561,0.0,17.84,2 
DISL,ioos:station:DISL:PPTA:1,2015-12-06T19:00:00Z,30.2791,-87.5561,0.0,17.75,2 
DISL,ioos:station:DISL:PPTA:1,2015-12-06T19:30:00Z,30.2791,-87.5561,0.0,17.74,2 
DISL,ioos:station:DISL:PPTA:1,2015-12-06T20:00:00Z,30.2791,-87.5561,0.0,17.87,2 
DISL,ioos:station:DISL:PPTA:1,2015-12-06T20:30:00Z,30.2791,-87.5561,0.0,17.98,2 
DISL,ioos:station:DISL:PPTA:1,2015-12-06T21:00:00Z,30.2791,-87.5561,0.0,18.02,2 
DISL,ioos:station:DISL:PPTA:1,2015-12-06T21:30:00Z,30.2791,-87.5561,0.0,18.09,2 
DISL,ioos:station:DISL:PPTA:1,2015-12-06T22:00:00Z,30.2791,-87.5561,0.0,18.2,2 
DISL,ioos:station:DISL:PPTA:1,2015-12-06T22:30:00Z,30.2791,-87.5561,0.0,18.25,2 
DISL,ioos:station:DISL:PPTA:1,2015-12-06T23:00:00Z,30.2791,-87.5561,0.0,18.18,2 
DISL,ioos:station:DISL:PPTA:1,2015-12-06T23:30:00Z,30.2791,-87.5561,0.0,18.29,2 
DISL,ioos:station:DISL:PPTA:1,2015-12-07T00:00:00Z,30.2791,-87.5561,0.0,18.28,2 
DISL,ioos:station:DISL:PPTA:1,2015-12-07T00:30:00Z,30.2791,-87.5561,0.0,18.31,2 
DISL,ioos:station:DISL:PPTA:1,2015-12-07T01:00:00Z,30.2791,-87.5561,0.0,18.31,2 
DISL,ioos:station:DISL:PPTA:1,2015-12-07T01:30:00Z,30.2791,-87.5561,0.0,18.32,2 
DISL,ioos:station:DISL:PPTA:1,2015-12-07T02:00:00Z,30.2791,-87.5561,0.0,18.32,2 
DISL,ioos:station:DISL:PPTA:1,2015-12-07T02:30:00Z,30.2791,-87.5561,0.0,18.32,2 
DISL,ioos:station:DISL:PPTA:1,2015-12-07T03:00:00Z,30.2791,-87.5561,0.0,18.32,2 